| time (UTC) | temp F | wind direction | speed MPH | gust MPH | rain 1hr in | rain 24hr in | rain mn in | humidity % | barometer mb |
| 20260906074517 | 54 | 141 | 0.0 | 2.0 | 0.00 | 0.00 | 0.00 | 91 | 1017.6 |
| 20260906073013 | 54 | 190 | 1.0 | 2.0 | 0.00 | 0.00 | 0.00 | 90 | 1017.4 |
| 20260906071512 | 54 | 124 | 0.0 | 0.0 | 0.00 | 0.00 | 0.00 | 90 | 1017.5 |
| 20260906070010 | 54 | 153 | 0.0 | 2.0 | 0.00 | 0.00 | 0.00 | 90 | 1017.5 |
| 20260906064509 | 55 | 186 | 0.0 | 0.0 | 0.00 | 0.00 | 0.00 | 89 | 1017.6 |
| 20260906063009 | 55 | 253 | 0.0 | 2.0 | 0.00 | 0.00 | 0.00 | 89 | 1017.4 |
| 20260906061509 | 56 | 142 | 0.0 | 2.0 | 0.00 | 0.00 | 0.00 | 88 | 1017.2 |
| 20260906060008 | 55 | 139 | 0.0 | 2.0 | 0.00 | 0.00 | 0.00 | 88 | 1017.3 |
| 20260906054508 | 56 | 147 | 0.0 | 0.0 | 0.00 | 0.00 | 0.00 | 88 | 1017.5 |
| 20260906053007 | 56 | 200 | 0.0 | 0.0 | 0.00 | 0.00 | 0.00 | 87 | 1017.6 |
| 20260906051506 | 56 | 123 | 0.0 | 0.0 | 0.00 | 0.00 | 0.00 | 86 | 1017.7 |
| 20260906050007 | 57 | 123 | 0.0 | 0.0 | 0.00 | 0.00 | 0.00 | 85 | 1017.9 |
| 20260906044506 | 58 | 123 | 0.0 | 2.0 | 0.00 | 0.00 | 0.00 | 85 | 1017.8 |
| 20260906043006 | 58 | 102 | 0.0 | 1.0 | 0.00 | 0.00 | 0.00 | 84 | 1017.9 |
| 20260906041505 | 58 | 122 | 0.0 | 2.0 | 0.00 | 0.00 | 0.00 | 85 | 1017.9 |
| 20260906040005 | 58 | 171 | 0.0 | 2.0 | 0.00 | 0.00 | 0.00 | 85 | 1017.7 |
| 20260906034504 | 58 | 149 | 0.0 | 2.0 | 0.00 | 0.00 | 0.00 | 85 | 1017.6 |
| 20260906033010 | 59 | 195 | 0.0 | 2.0 | 0.00 | 0.00 | 0.00 | 82 | 1017.5 |
| 20260906031502 | 60 | 212 | 0.0 | 1.0 | 0.00 | 0.00 | 0.00 | 80 | 1017.5 |
| 20260906030002 | 62 | 160 | 0.0 | 0.0 | 0.00 | 0.00 | 0.00 | 78 | 1017.7 |
| 20260906024502 | 64 | 174 | 0.0 | 0.0 | 0.00 | 0.00 | 0.00 | 73 | 1017.7 |
| 20260906023001 | 66 | 86 | 0.0 | 0.0 | 0.00 | 0.00 | 0.00 | 70 | 1017.6 |
| 20260906021501 | 65 | 86 | 0.0 | 1.0 | 0.00 | 0.00 | 0.00 | 72 | 1017.6 |
| 20260906020107 | 65 | 75 | 0.0 | 3.0 | 0.00 | 0.00 | 0.00 | 71 | 1017.5 |
| 20260906014602 | 65 | 330 | 0.0 | 2.0 | 0.00 | 0.00 | 0.00 | 70 | 1017.3 |
| 20260906013110 | 67 | 347 | 0.0 | 2.0 | 0.00 | 0.00 | 0.00 | 70 | 1017.2 |
| 20260906011606 | 65 | 314 | 0.0 | 3.0 | 0.00 | 0.00 | 0.00 | 72 | 1017.2 |
| 20260906010059 | 66 | 316 | 0.0 | 3.0 | 0.00 | 0.00 | 0.00 | 72 | 1017.2 |
| 20260906004604 | 65 | 338 | 1.0 | 4.0 | 0.00 | 0.00 | 0.00 | 73 | 1017.2 |
| 20260906003103 | 65 | 30 | 1.0 | 5.0 | 0.00 | 0.00 | 0.00 | 72 | 1017.2 |
| 20260906001555 | 66 | 350 | 1.0 | 4.0 | 0.00 | 0.00 | 0.00 | 71 | 1017.1 |
| 20260906000058 | 67 | 291 | 0.0 | 6.0 | 0.00 | 0.00 | 0.00 | 70 | 1017.2 |
| 20260905234554 | 68 | 326 | 1.0 | 4.0 | 0.00 | 0.00 | 0.00 | 70 | 1017.2 |
| 20260905233054 | 68 | 245 | 0.0 | 3.0 | 0.00 | 0.00 | 0.00 | 71 | 1017.1 |
| 20260905231554 | 67 | 272 | 0.0 | 2.0 | 0.00 | 0.00 | 0.00 | 70 | 1017.1 |
| 20260905230054 | 67 | 313 | 0.0 | 4.0 | 0.00 | 0.00 | 0.00 | 71 | 1017.2 |
| 20260905224554 | 66 | 323 | 2.0 | 4.0 | 0.00 | 0.00 | 0.00 | 71 | 1017.3 |
| 20260905223051 | 68 | 321 | 1.0 | 4.0 | 0.00 | 0.00 | 0.00 | 69 | 1017.3 |
| 20260905221549 | 67 | 296 | 0.0 | 3.0 | 0.00 | 0.00 | 0.00 | 71 | 1017.3 |
| 20260905220048 | 66 | 351 | 1.0 | 5.0 | 0.00 | 0.00 | 0.00 | 71 | 1017.6 |
| 20260905214551 | 67 | 304 | 1.0 | 4.0 | 0.00 | 0.00 | 0.00 | 71 | 1017.6 |
| 20260905213046 | 67 | 4 | 1.0 | 4.0 | 0.00 | 0.00 | 0.00 | 70 | 1017.5 |
| 20260905211551 | 66 | 13 | 1.0 | 6.0 | 0.00 | 0.00 | 0.00 | 73 | 1017.8 |
| 20260905210047 | 66 | 301 | 1.0 | 4.0 | 0.00 | 0.00 | 0.00 | 74 | 1017.9 |
| 20260905204546 | 66 | 271 | 2.0 | 5.0 | 0.00 | 0.00 | 0.00 | 75 | 1017.9 |
| 20260905203042 | 65 | 295 | 2.0 | 5.0 | 0.00 | 0.00 | 0.00 | 75 | 1018.1 |
| 20260905201540 | 65 | 293 | 3.0 | 5.0 | 0.00 | 0.00 | 0.00 | 74 | 1018.2 |
| 20260905200041 | 65 | 308 | 2.0 | 5.0 | 0.00 | 0.00 | 0.00 | 77 | 1018.1 |
| 20260905194538 | 65 | 319 | 1.0 | 5.0 | 0.00 | 0.00 | 0.00 | 76 | 1018.2 |
| 20260905193035 | 64 | 200 | 2.0 | 5.0 | 0.00 | 0.00 | 0.00 | 77 | 1018.3 |
| 20260905191535 | 64 | 284 | 2.0 | 5.0 | 0.00 | 0.00 | 0.00 | 78 | 1018.3 |
| 20260905190032 | 64 | 217 | 1.0 | 5.0 | 0.00 | 0.00 | 0.00 | 79 | 1018.4 |
| 20260905184550 | 63 | 255 | 1.0 | 5.0 | 0.00 | 0.00 | 0.00 | 81 | 1018.4 |
| 20260905183041 | 62 | 274 | 2.0 | 6.0 | 0.00 | 0.00 | 0.00 | 80 | 1018.5 |
| 20260905181532 | 63 | 165 | 0.0 | 5.0 | 0.00 | 0.00 | 0.00 | 82 | 1018.5 |
| 20260905180033 | 62 | 236 | 1.0 | 5.0 | 0.00 | 0.00 | 0.00 | 82 | 1018.6 |
| 20260905174525 | 61 | 307 | 1.0 | 4.0 | 0.00 | 0.00 | 0.00 | 83 | 1018.5 |
| 20260905173022 | 61 | 297 | 0.0 | 2.0 | 0.00 | 0.00 | 0.00 | 85 | 1018.6 |
| 20260905171521 | 59 | 295 | 0.0 | 4.0 | 0.00 | 0.00 | 0.00 | 86 | 1018.7 |
| 20260905170020 | 60 | 345 | 0.0 | 3.0 | 0.00 | 0.00 | 0.00 | 87 | 1018.6 |
| 20260905164514 | 59 | 11 | 0.0 | 2.0 | 0.00 | 0.00 | 0.00 | 90 | 1018.6 |
| 20260905163012 | 58 | 354 | 2.0 | 4.0 | 0.00 | 0.00 | 0.00 | 90 | 1018.6 |
| 20260905161510 | 58 | 219 | 0.0 | 1.0 | 0.00 | 0.00 | 0.00 | 92 | 1018.4 |
| 20260905160008 | 57 | 203 | 0.0 | 0.0 | 0.00 | 0.00 | 0.00 | 95 | 1018.3 |
| 20260905154507 | 55 | 219 | 0.0 | 0.0 | 0.00 | 0.00 | 0.00 | 95 | 1018.2 |
| 20260905153006 | 55 | 219 | 0.0 | 1.0 | 0.00 | 0.00 | 0.00 | 95 | 1018.3 |
| 20260905151506 | 55 | 290 | 0.0 | 0.0 | 0.00 | 0.00 | 0.00 | 96 | 1018.2 |
| 20260905150004 | 54 | 290 | 0.0 | 0.0 | 0.00 | 0.00 | 0.00 | 96 | 1018.1 |
| 20260905144505 | 54 | 289 | 0.0 | 0.0 | 0.00 | 0.00 | 0.00 | 97 | 1018.1 |
| 20260905143004 | 53 | 289 | 0.0 | 0.0 | 0.00 | 0.00 | 0.00 | 97 | 1018.1 |
| 20260905141503 | 53 | 289 | 0.0 | 0.0 | 0.00 | 0.00 | 0.00 | 96 | 1018.1 |
| 20260905140101 | 53 | 289 | 0.0 | 0.0 | 0.00 | 0.00 | 0.00 | 96 | 1017.9 |
| 20260905134559 | 53 | 289 | 0.0 | 0.0 | 0.00 | 0.00 | 0.00 | 96 | 1017.8 |
| 20260905133058 | 53 | 290 | 0.0 | 0.0 | 0.00 | 0.00 | 0.00 | 96 | 1017.8 |
| 20260905131604 | 54 | 289 | 0.0 | 2.0 | 0.00 | 0.00 | 0.00 | 96 | 1017.8 |
| 20260905130059 | 55 | 129 | 0.0 | 0.0 | 0.00 | 0.00 | 0.00 | 96 | 1017.7 |
| 20260905124556 | 55 | 129 | 0.0 | 2.0 | 0.00 | 0.00 | 0.00 | 96 | 1017.7 |
| 20260905123059 | 55 | 116 | 0.0 | 1.0 | 0.00 | 0.00 | 0.00 | 96 | 1017.6 |
| 20260905121600 | 54 | 120 | 0.0 | 0.0 | 0.00 | 0.00 | 0.00 | 96 | 1017.5 |
| 20260905120053 | 54 | 120 | 0.0 | 0.0 | 0.00 | 0.00 | 0.00 | 96 | 1017.5 |
| 20260905114554 | 54 | 136 | 0.0 | 0.0 | 0.00 | 0.00 | 0.00 | 96 | 1017.5 |
| 20260905113052 | 53 | 136 | 0.0 | 0.0 | 0.00 | 0.00 | 0.00 | 95 | 1017.4 |
| 20260905111640 | 54 | 136 | 0.0 | 0.0 | 0.00 | 0.00 | 0.00 | 95 | 1017.3 |
| 20260905110049 | 54 | 143 | 0.0 | 0.0 | 0.00 | 0.00 | 0.00 | 95 | 1017.3 |
| 20260905104552 | 54 | 153 | 0.0 | 0.0 | 0.00 | 0.00 | 0.00 | 95 | 1017.3 |
| 20260905103048 | 54 | 154 | 0.0 | 1.0 | 0.00 | 0.00 | 0.00 | 95 | 1017.4 |
| 20260905101556 | 54 | 128 | 0.0 | 1.0 | 0.00 | 0.00 | 0.00 | 95 | 1017.3 |
| 20260905100050 | 54 | 122 | 0.0 | 1.0 | 0.00 | 0.00 | 0.00 | 94 | 1017.3 |
| 20260905094546 | 54 | 122 | 0.0 | 1.0 | 0.00 | 0.00 | 0.00 | 94 | 1017.3 |
| 20260905093045 | 54 | 144 | 0.0 | 1.0 | 0.00 | 0.00 | 0.00 | 94 | 1017.3 |
| 20260905091543 | 54 | 188 | 0.0 | 1.0 | 0.00 | 0.00 | 0.00 | 94 | 1017.2 |
| 20260905090041 | 55 | 217 | 0.0 | 1.0 | 0.00 | 0.00 | 0.00 | 94 | 1017.0 |
| 20260905084548 | 55 | 302 | 0.0 | 0.0 | 0.00 | 0.00 | 0.00 | 93 | 1017.0 |
| 20260905083037 | 56 | 99 | 0.0 | 1.0 | 0.00 | 0.00 | 0.00 | 94 | 1017.0 |
| 20260905081536 | 56 | 110 | 0.0 | 1.0 | 0.00 | 0.00 | 0.00 | 93 | 1017.0 |
| 20260905080043 | 56 | 92 | 0.0 | 1.0 | 0.00 | 0.00 | 0.00 | 93 | 1016.9 |